User: anonymous   Login
Location: Unspecified
(0.0000°N, 0.0000°E)
Time: 16:31:05
(UTC+01:00)
Language:

Helios 1A Rocket - Orbit

View from above orbital plane
View from above orbital plane
View from above satellite
View from above satellite

Ground track
Ground track

The orbit data is extracted from the following two-line orbital elements,

1 23608U 95033D   16036.55021713  .00001534  00000-0  14426-3 0  9992
2 23608  98.2272 298.4887 0018644  94.8137 265.5211 14.95398085113360
Epoch (UTC): 05 February 2016 13:12:18
Eccentricity: 0.0018644
inclination: 98.2272°
perigee height: 568 km
apogee height: 594 km
right ascension of ascending node: 298.4887°
argument of perigee: 94.8137°
revolutions per day: 14.95398085
mean anomaly at epoch: 265.5211°
orbit number at epoch: 11336

The dashed part of the orbit path shows where the satellite is in the earth's shadow,  

DLR